Location: Beetenbrück
(52.8113°N, 9.5946°E)
Time: 21:45:20
(UTC+00:00)

CZ-2C R/B - Pass Details

Date: 14 April 2026
Orbit: 343 x 359 km, 97.7° (Epoch: 12 May)

Event Time Altitude Azimuth Distance (km) Brightness Sun altitude
Exits shadow 18:35:48 - 77° (ENE) 2,208 5.4 -3.2°
Enters shadow 19:32:30 -69° 165° (SSE) 12,301 9.6 -10.9°
Maximum altitude 20:07:58 30° 68° (ENE) 700 3.1 -15.2°
